Home   Weather   Jacksonville   Past weeks

Flag for USA Past Weather in Jacksonville, Florida, USA — Yesterday and Last 2 Weeks

Now
82 °F

Partly sunny.


Feels Like: 81 °F
Forecast: 56 / 84 °F
Wind: 14 mph from West

Location: Jacksonville Naval Air Station

Current Time: Apr 25, 2017 at 6:50:46 pm

Latest Report: Apr 25, 2017 at 5:53 pm


Visibility: 10 mi

Pressure: 29.73 "Hg

Humidity: 38%

Dew Point: 54 °F

Location of JacksonvilleLocation

Past Weather in Jacksonville — Graph

°F

Jacksonville Temperature Yesterday

Maximum temperature yesterday: 76 °F (at 12:53 pm)
Minimum temperature yesterday: 61 °F (at 11:53 pm)
Average temperature yesterday: 71 °F

High & Low Weather Summary for the Past Weeks

 TemperatureHumidityPressure
High87 °F (Apr 23, 2:53 pm)90% (Apr 12, 6:53 am)30.32 "Hg (Apr 12, 6:53 am)
Low57 °F (Apr 25, 3:53 am)35% (Apr 16, 2:53 pm)29.67 "Hg (Apr 24, 3:53 pm)
Average73 °F65%30.09 "Hg
* Reported Apr 10 4:53 pm — Apr 25 4:53 pm, Jacksonville, Weather by CustomWeather, © 2017

Note: Actual official high and low records may vary slightly from our data, if they occured in-between our weather recording intervals... More about our weather records

Advertising

Jacksonville Weather History for the Previous 24 Hours

Scroll right to see more
 ConditionsComfort  
Time TempWeatherWind HumidityBarometerVisibility
4:53 pm
Tue, Apr 25
83 °FPartly sunny.15 mph37%29.73 "Hg10 mi
3:53 pm82 °FScattered clouds.12 mph37%29.74 "Hg10 mi
2:53 pm81 °FPartly sunny.10 mph38%29.76 "Hg10 mi
1:53 pm79 °FPartly sunny.15 mph41%29.78 "Hg10 mi
12:53 pm77 °FPartly sunny.15 mph45%29.80 "Hg10 mi
11:53 am75 °FScattered clouds.12 mph50%29.80 "Hg10 mi
10:53 am73 °FPassing clouds.12 mph53%29.80 "Hg10 mi
9:53 am68 °FSunny.8 mph63%29.80 "Hg10 mi
8:53 am63 °FPassing clouds.8 mph70%29.79 "Hg10 mi
7:53 am59 °FPassing clouds.10 mph78%29.78 "Hg10 mi
6:53 am57 °FPassing clouds.8 mph81%29.76 "Hg10 mi
5:53 am57 °FPassing clouds.8 mph81%29.74 "Hg10 mi
4:53 am57 °FPassing clouds.7 mph81%29.73 "Hg10 mi
3:53 am57 °FPassing clouds.6 mph81%29.72 "Hg10 mi
2:53 am60 °FPassing clouds.9 mph72%29.72 "Hg10 mi
1:53 am61 °FPassing clouds.8 mph70%29.74 "Hg10 mi
12:53 am62 °FPartly cloudy.10 mph65%29.74 "Hg10 mi
11:53 pm
Mon, Apr 24
61 °FPassing clouds.8 mph67%29.73 "Hg10 mi
10:53 pm62 °FPassing clouds.7 mph65%29.73 "Hg10 mi
9:53 pm65 °FPassing clouds.8 mph56%29.72 "Hg10 mi
8:53 pm66 °FPartly cloudy.8 mph54%29.71 "Hg10 mi
7:53 pm68 °FBroken clouds.10 mph51%29.69 "Hg10 mi
6:53 pm70 °FPartly sunny.12 mph51%29.68 "Hg10 mi
Weather by CustomWeather, © 2017

See weather overviewHow to use our weather pages